VK2ADG-2 Weather Reports


Display with metric or nautical units.
time (UTC)temp
F
wind
direction
speed
MPH
gust
MPH
rain 1hr
in
rain 24hr
in
rain mn
in
humidity
%
barometer
mb
20260505100055 51 0.0 1.0 0.00 0.00 0.00 87 1021.3
20260505095032 52 161 0.0 2.0 0.00 0.00 0.00 86 1021.2
20260505094030 51 0.0 1.0 0.00 0.00 0.00 86 1021.1
20260505093028 51 147 0.0 2.0 0.00 0.00 0.00 87 1021.0
20260505092025 51 141 1.0 2.0 0.00 0.00 0.00 88 1021.2
20260505091023 51 76 0.0 1.0 0.00 0.00 0.00 86 1021.3
20260505090020 52 350 0.0 1.0 0.00 0.00 0.00 85 1021.1
20260505085018 52 138 0.0 1.0 0.00 0.00 0.00 84 1021.0
20260505084035 53 74 0.0 1.0 0.00 0.00 0.00 83 1020.8
20260505083033 54 73 0.0 2.0 0.00 0.00 0.00 81 1020.9
20260505082051 54 167 1.0 3.0 0.00 0.00 0.00 81 1020.8
20260505081028 54 269 0.0 2.0 0.00 0.00 0.00 81 1020.6
20260505080046 55 184 0.0 3.0 0.00 0.00 0.00 79 1020.5
20260505075023 55 164 2.0 4.0 0.00 0.00 0.00 78 1020.4
20260505074042 56 165 2.0 4.0 0.00 0.00 0.00 78 1020.2
20260505073019 56 174 1.0 2.0 0.00 0.00 0.00 77 1020.1
20260505072017 57 167 3.0 5.0 0.00 0.00 0.00 75 1020.0
20260505071034 58 160 3.0 6.0 0.00 0.00 0.00 74 1020.1
20260505070032 58 156 2.0 5.0 0.00 0.00 0.00 73 1020.0
20260505065110 58 158 4.0 8.0 0.00 0.00 0.00 72 1020.0
20260505064047 59 156 5.0 10.0 0.00 0.00 0.00 72 1020.0
20260505063024 60 145 3.0 7.0 0.00 0.00 0.00 71 1019.9
20260505062022 60 165 3.0 10.0 0.00 0.00 0.00 70 1019.7
20260505061040 60 166 4.0 9.0 0.00 0.00 0.00 67 1019.6
20260505060017 60 170 5.0 10.0 0.00 0.00 0.00 67 1019.7
20260505055035 60 176 5.0 10.0 0.00 0.00 0.00 68 1019.6
20260505054053 60 166 5.0 11.0 0.00 0.00 0.00 70 1019.5
20260505053030 62 176 6.0 10.0 0.00 0.00 0.00 66 1019.3
20260505052028 64 185 4.0 10.0 0.00 0.00 0.00 62 1019.2
20260505051025 64 223 5.0 10.0 0.00 0.00 0.00 61 1019.2
20260505041031 64 219 3.0 5.0 0.00 0.00 0.00 63 1018.9
20260505040029 63 176 5.0 10.0 0.00 0.00 0.00 63 1018.9
20260505035026 64 228 3.0 8.0 0.00 0.00 0.00 63 1018.8
20260505034024 64 210 3.0 8.0 0.00 0.00 0.00 63 1018.8
20260505033021 63 162 3.0 7.0 0.00 0.00 0.00 66 1019.0
20260505032019 61 177 3.0 6.0 0.00 0.00 0.00 68 1019.3
20260505031017 63 210 4.0 8.0 0.00 0.00 0.00 65 1019.3
20260505030034 63 254 5.0 9.0 0.00 0.00 0.00 64 1019.2
20260505025032 63 257 5.0 8.0 0.00 0.00 0.00 64 1019.3
20260505024029 63 224 4.0 9.0 0.00 0.00 0.00 65 1019.4
20260505023027 62 243 5.0 10.0 0.00 0.00 0.00 64 1019.6
20260505022025 63 229 5.0 9.0 0.00 0.00 0.00 63 1019.7
20260505021022 63 260 3.0 8.0 0.00 0.00 0.00 65 1019.6
20260505020020 62 229 3.0 8.0 0.00 0.00 0.00 65 1019.6
20260505015038 62 247 3.0 7.0 0.00 0.00 0.00 66 1019.7
20260505014035 62 253 3.0 7.0 0.00 0.00 0.00 67 1019.8
20260505013033 61 250 4.0 6.0 0.00 0.00 0.00 69 1019.7
20260505012031 61 226 3.0 10.0 0.00 0.00 0.00 69 1019.8
20260505011028 59 200 3.0 6.0 0.00 0.00 0.00 73 1019.9
20260505010026 61 218 2.0 6.0 0.00 0.00 0.00 73 1019.8
20260505005023 60 236 4.0 8.0 0.00 0.00 0.00 74 1019.9
20260505004021 59 203 4.0 9.0 0.00 0.00 0.00 76 1019.8
20260505003019 59 240 4.0 11.0 0.00 0.00 0.00 77 1019.8
20260505002016 58 253 4.0 7.0 0.00 0.00 0.00 80 1019.8
20260505001034 58 228 3.0 7.0 0.00 0.00 0.00 79 1019.7
20260505000031 58 229 3.0 9.0 0.00 0.00 0.00 79 1019.7
20260504235029 58 215 3.0 6.0 0.00 0.00 0.00 80 1019.6
20260504234027 57 236 3.0 6.0 0.00 0.00 0.00 83 1019.6
20260504233044 56 239 4.0 8.0 0.00 0.00 0.00 85 1019.6
20260504232022 56 225 4.0 9.0 0.00 0.00 0.00 84 1019.7
20260504231019 56 248 3.0 8.0 0.00 0.00 0.00 85 1019.6
20260504230037 56 237 3.0 7.0 0.00 0.00 0.00 86 1019.7
20260504225055 54 260 3.0 6.0 0.00 0.00 0.00 88 1019.5
20260504224032 54 243 3.0 6.0 0.00 0.00 0.00 89 1019.6
20260504223030 53 237 3.0 5.0 0.00 0.01 0.00 91 1019.4
20260504222027 53 261 3.0 4.0 0.00 0.01 0.00 93 1019.3
20260504221025 52 256 3.0 6.0 0.00 0.01 0.00 95 1019.2
20260504220023 51 278 3.0 6.0 0.00 0.01 0.00 95 1019.1
20260504215020 51 268 2.0 4.0 0.00 0.01 0.00 96 1018.9
20260504214018 50 309 1.0 2.0 0.00 0.01 0.00 96 1018.6
20260504213056 49 254 1.0 3.0 0.00 0.01 0.00 95 1018.5
20260504212033 49 263 1.0 3.0 0.00 0.01 0.00 95 1018.5
20260504211051 49 261 1.0 3.0 0.00 0.01 0.00 95 1018.3
20260504210029 49 306 1.0 2.0 0.00 0.01 0.00 95 1018.2
20260504205026 49 292 1.0 3.0 0.00 0.01 0.00 94 1018.1
20260504204023 49 287 1.0 2.0 0.00 0.01 0.00 94 1018.0
20260504203041 49 341 1.0 2.0 0.00 0.01 0.00 94 1017.9
20260504202019 49 289 1.0 2.0 0.00 0.01 0.00 94 1017.8
20260504201057 49 186 1.0 2.0 0.00 0.01 0.00 93 1017.5
20260504200034 50 229 1.0 3.0 0.00 0.01 0.00 93 1017.5
20260504195031 50 223 2.0 5.0 0.00 0.01 0.00 93 1017.5
20260504194029 50 230 2.0 4.0 0.00 0.01 0.00 92 1017.3
20260504193027 50 229 1.0 3.0 0.00 0.01 0.00 92 1017.3
20260504192024 51 234 3.0 8.0 0.00 0.01 0.00 92 1017.2
20260504191022 51 228 2.0 5.0 0.00 0.01 0.00 91 1017.2
20260504190019 51 243 2.0 6.0 0.00 0.01 0.00 91 1017.0
20260504185017 51 221 3.0 6.0 0.00 0.01 0.00 90 1017.0
20260504184035 51 247 4.0 7.0 0.00 0.01 0.00 90 1016.8
20260504183033 52 247 4.0 9.0 0.00 0.01 0.00 89 1016.7
20260504182030 52 246 4.0 8.0 0.00 0.01 0.00 89 1016.6
20260504181027 52 239 5.0 11.0 0.00 0.01 0.00 89 1016.5
20260504180045 52 241 4.0 7.0 0.00 0.01 0.00 88 1016.5
20260504175043 52 243 4.0 7.0 0.00 0.01 0.00 88 1016.3
20260504174020 52 244 4.0 9.0 0.00 0.01 0.00 87 1016.3
20260504173018 53 247 3.0 8.0 0.00 0.01 0.00 86 1016.2
20260504172036 53 244 4.0 10.0 0.00 0.02 0.00 86 1016.3
20260504171033 53 240 4.0 10.0 0.00 0.03 0.00 85 1016.3
20260504151024 53 287 2.0 6.0 0.00 0.10 0.00 81 1016.1
20260504141030 53 298 1.0 2.0 0.00 0.10 0.00 81 1016.1
20260504130114 54 304 1.0 3.0 0.00 0.12 0.10 79 1016.0